Hailey, ID

10:24 AM MDT on April 19, 2018 (GMT -0600)
Friedman Memorial

Weather History for KSUN - December, 2011

Change the Weather History Date:

Monday, December 5, 2011

  Actual Average Record
Temperature  
Mean Temperature 11 °F -  
Max Temperature 19 °F 34 °F 48 °F (2012)
Min Temperature 3 °F 16 °F -5 °F (1996)
Degree Days  
Heating Degree Days 54    
Moisture  
Dew Point 4 °F    
Average Humidity 72    
Maximum Humidity 92    
Minimum Humidity 57    
Precipitation  
Precipitation 0.00 in - - ()
Sea Level Pressure  
Sea Level Pressure 30.32 in    
Wind  
Wind Speed 7 mph (NW)    
Max Wind Speed 14 mph    
Max Gust Speed -    
Visibility 9 miles    
Events      
Averages and records for this station are not official NWS values.
T = Trace of Precipitation, MM = Missing Value Source: NWS Daily Summary

Daily Weather History Graph

Daily Weather History Graph

Search for Another Location

Airport or City:

Astronomy

Dec. 05, 2011 Rise Set
Actual Time 7:54 AM MST 5:01 PM MST
Civil Twilight 7:22 AM MST 5:33 PM MST
Nautical Twilight 6:46 AM MST 6:09 PM MST
Astronomical Twilight 6:11 AM MST 6:43 PM MST
Moon 2:05 PM MST (12/5) 3:14 AM MST (12/5)
Length of Visible Light 10h 11m
Length of Day
9h 06m
Waxing Gibbous, 80% of the Moon is Illuminated
Dec 5
Waxing Gibbous
Dec 10
Full
Dec 17
Last Quarter
Dec 24
New
Dec 31
First Quarter

Hourly Weather History & Observations

Time (MST) Temp. Windchill Dew Point Humidity Pressure Visibility Wind Dir Wind Speed Gust Speed Precip Events Conditions
12:15 AM 12.2 °F -0.2 °F 3.2 °F 67% 30.32 in 10.0 mi North 9.2 mph - N/A   Clear
12:35 AM 12.2 °F -0.2 °F 3.2 °F 67% 30.32 in 10.0 mi WNW 9.2 mph - N/A   Clear
12:55 AM 12.2 °F 1.7 °F 3.2 °F 67% 30.32 in 10.0 mi NW 6.9 mph - N/A   Clear
1:15 AM 10.4 °F -1.5 °F 3.2 °F 73% 30.32 in 10.0 mi WNW 8.1 mph - N/A   Clear
1:35 AM 12.2 °F -1.0 °F 3.2 °F 67% 30.31 in 10.0 mi NW 10.4 mph - N/A   Clear
1:55 AM 12.2 °F -1.8 °F 1.4 °F 62% 30.30 in 10.0 mi WNW 11.5 mph - N/A   Clear
2:15 AM 14.0 °F -0.8 °F 3.2 °F 62% 30.32 in 10.0 mi NNW 13.8 mph - N/A   Clear
2:35 AM 14.0 °F 1.2 °F 3.2 °F 62% 30.32 in 10.0 mi NNW 10.4 mph - N/A   Clear
2:55 AM 10.4 °F -1.5 °F 1.4 °F 67% 30.32 in 10.0 mi NNW 8.1 mph - N/A   Clear
3:15 AM 10.4 °F -1.5 °F -0.4 °F 62% 30.32 in 10.0 mi NNW 8.1 mph - N/A   Clear
3:35 AM 8.6 °F -1.3 °F 1.4 °F 73% 30.33 in 10.0 mi NW 5.8 mph - N/A   Clear
3:55 AM 5.0 °F - -0.4 °F 78% 30.32 in 10.0 mi Calm Calm - N/A   Clear
4:15 AM 8.6 °F - -0.4 °F 67% 30.32 in 10.0 mi Calm Calm - N/A   Clear
4:35 AM 5.0 °F -2.1 °F -0.4 °F 78% 30.32 in 10.0 mi NNW 3.5 mph - N/A   Clear
4:55 AM 3.2 °F -10.3 °F -2.2 °F 78% 30.31 in 10.0 mi NNW 8.1 mph - N/A   Clear
5:35 AM 8.6 °F -5.5 °F 1.4 °F 73% 30.32 in 10.0 mi NW 10.4 mph - N/A   Clear
5:55 AM 8.6 °F -5.5 °F 1.4 °F 73% 30.32 in 10.0 mi NW 10.4 mph - N/A   Clear
6:47 AM 6.8 °F -3.5 °F -0.4 °F 72% 30.34 in 7.0 mi West 5.8 mph - N/A   Clear
7:49 AM 3.2 °F - -2.2 °F 78% 30.34 in 7.0 mi Calm Calm - N/A   Partly Cloudy
9:47 AM 8.6 °F 0.1 °F -2.2 °F 62% 30.36 in 7.0 mi NW 4.6 mph - N/A   Partly Cloudy
10:47 AM 12.2 °F - -0.4 °F 57% 30.37 in 7.0 mi Calm Calm - N/A   Partly Cloudy
11:47 AM 15.8 °F 7.2 °F 5.0 °F 62% 30.35 in 7.0 mi ESE 5.8 mph - N/A   Clear
12:47 PM 17.6 °F 10.7 °F 8.6 °F 68% 30.33 in 7.0 mi ESE 4.6 mph - N/A   Partly Cloudy
1:47 PM 19.4 °F 12.8 °F 10.4 °F 68% 30.32 in 7.0 mi SE 4.6 mph - N/A   Clear
2:47 PM 19.4 °F 9.5 °F 10.4 °F 68% 30.30 in 7.0 mi ESE 8.1 mph - N/A   Clear
3:55 PM 19.4 °F 11.5 °F 8.6 °F 63% 30.31 in 10.0 mi ESE 5.8 mph - N/A   Clear
4:47 PM 17.6 °F - 8.6 °F 68% 30.32 in 10.0 mi Calm Calm - N/A   Clear
5:47 PM 15.8 °F - 8.6 °F 73% 30.32 in 10.0 mi Calm Calm - N/A   Clear
6:47 PM 14.0 °F - 8.6 °F 79% 30.32 in 10.0 mi Calm Calm - N/A   Clear
7:55 PM 12.2 °F 2.9 °F 6.8 °F 79% 30.31 in 10.0 mi WNW 5.8 mph - N/A   Clear
9:47 PM 8.6 °F - 5.0 °F 85% 30.32 in 10.0 mi Calm Calm - N/A   Clear
10:15 PM 10.4 °F 2.2 °F 8.6 °F 92% 30.32 in 10.0 mi NW 4.6 mph - N/A   Clear
10:35 PM 10.4 °F 0.8 °F 6.8 °F 85% 30.32 in 10.0 mi NW 5.8 mph - N/A   Clear
10:47 PM 10.4 °F -0.4 °F 6.8 °F 85% 30.32 in 10.0 mi WNW 6.9 mph - N/A   Clear
10:55 PM 12.2 °F 1.7 °F 6.8 °F 79% 30.32 in 10.0 mi NW 6.9 mph - N/A   Clear
11:15 PM 10.4 °F -3.3 °F 6.8 °F 85% 30.32 in 10.0 mi WNW 10.4 mph - N/A   Clear
11:35 PM 12.2 °F 1.7 °F 6.8 °F 79% 30.32 in 10.0 mi NW 6.9 mph - N/A   Clear
11:55 PM 10.4 °F 2.2 °F 6.8 °F 85% 30.32 in 10.0 mi NW 4.6 mph - N/A   Clear